| time (UTC) | temp C | wind direction | speed KPH | gust KPH | rain 1hr cm | rain 24hr cm | rain mn cm | humidity % | barometer mb |
| 20260510010314 | 11 | 297 | 1.6 | 1.6 | 0.00 | 0.00 | 0.00 | 73 | 1011.3 |
| 20260510005810 | 12 | 304 | 1.6 | 1.6 | 0.00 | 0.00 | 0.00 | 71 | 1011.1 |
| 20260510005307 | 12 | 298 | 1.6 | 3.2 | 0.00 | 0.00 | 0.00 | 69 | 1011.0 |
| 20260510004805 | 12 | 309 | 3.2 | 3.2 | 0.00 | 0.00 | 0.00 | 68 | 1011.0 |
| 20260510004302 | 12 | 304 | 1.6 | 3.2 | 0.00 | 0.00 | 0.00 | 68 | 1010.9 |
| 20260510003759 | 12 | 300 | 1.6 | 1.6 | 0.00 | 0.00 | 0.00 | 67 | 1010.8 |
| 20260510003256 | 13 | 286 | 3.2 | 3.2 | 0.00 | 0.00 | 0.00 | 67 | 1010.7 |
| 20260510002754 | 13 | 277 | 4.8 | 6.4 | 0.00 | 0.00 | 0.00 | 66 | 1010.7 |
| 20260510002253 | 13 | 298 | 3.2 | 4.8 | 0.00 | 0.00 | 0.00 | 65 | 1010.9 |
| 20260510001749 | 13 | 242 | 11.3 | 14.5 | 0.00 | 0.00 | 0.00 | 65 | 1010.9 |
| 20260510001247 | 13 | 294 | 6.4 | 6.4 | 0.00 | 0.00 | 0.00 | 65 | 1010.7 |
| 20260510000743 | 13 | 303 | 4.8 | 4.8 | 0.00 | 0.00 | 0.00 | 64 | 1010.7 |
| 20260510000241 | 13 | 246 | 6.4 | 6.4 | 0.00 | 0.00 | 0.00 | 64 | 1010.6 |
| 20260509235737 | 13 | 299 | 8.0 | 11.3 | 0.00 | 0.00 | 0.00 | 64 | 1010.6 |
| 20260509235233 | 13 | 257 | 4.8 | 6.4 | 0.00 | 0.00 | 0.00 | 63 | 1010.2 |
| 20260509234729 | 14 | 303 | 6.4 | 6.4 | 0.00 | 0.00 | 0.00 | 63 | 1010.3 |
| 20260509234227 | 14 | 272 | 8.0 | 11.3 | 0.00 | 0.00 | 0.00 | 63 | 1010.2 |
| 20260509233725 | 14 | 312 | 6.4 | 9.7 | 0.00 | 0.00 | 0.00 | 63 | 1010.5 |
| 20260509233222 | 14 | 316 | 3.2 | 4.8 | 0.00 | 0.00 | 0.00 | 62 | 1010.3 |
| 20260509232718 | 15 | 296 | 8.0 | 11.3 | 0.00 | 0.00 | 0.00 | 61 | 1010.3 |
| 20260509232215 | 15 | 296 | 3.2 | 4.8 | 0.00 | 0.00 | 0.00 | 60 | 1010.2 |
| 20260509231711 | 15 | 282 | 3.2 | 4.8 | 0.00 | 0.00 | 0.00 | 60 | 1010.3 |
| 20260509231209 | 15 | 240 | 4.8 | 6.4 | 0.00 | 0.00 | 0.00 | 60 | 1010.5 |
| 20260509230706 | 15 | 275 | 8.0 | 11.3 | 0.00 | 0.00 | 0.00 | 60 | 1010.5 |
| 20260509230203 | 15 | 206 | 8.0 | 11.3 | 0.00 | 0.00 | 0.00 | 60 | 1010.2 |
| 20260509225658 | 15 | 270 | 6.4 | 12.9 | 0.00 | 0.00 | 0.00 | 60 | 1010.5 |
| 20260509225154 | 15 | 263 | 14.5 | 16.1 | 0.00 | 0.00 | 0.00 | 59 | 1010.3 |
| 20260509224650 | 15 | 213 | 17.7 | 20.9 | 0.00 | 0.00 | 0.00 | 60 | 1010.6 |
| 20260509224147 | 15 | 249 | 9.7 | 12.9 | 0.00 | 0.00 | 0.00 | 60 | 1010.6 |
| 20260509223644 | 16 | 311 | 14.5 | 17.7 | 0.00 | 0.00 | 0.00 | 58 | 1010.6 |
| 20260509223141 | 16 | 308 | 6.4 | 9.7 | 0.00 | 0.00 | 0.00 | 56 | 1010.6 |
| 20260509222638 | 16 | 238 | 6.4 | 9.7 | 0.00 | 0.00 | 0.00 | 56 | 1010.5 |
| 20260509222133 | 16 | 272 | 8.0 | 11.3 | 0.00 | 0.00 | 0.00 | 57 | 1010.6 |
| 20260509221630 | 15 | 259 | 3.2 | 3.2 | 0.00 | 0.00 | 0.00 | 58 | 1010.7 |
| 20260509221126 | 15 | 238 | 4.8 | 6.4 | 0.00 | 0.00 | 0.00 | 59 | 1010.5 |
| 20260509220622 | 15 | 246 | 9.7 | 14.5 | 0.00 | 0.00 | 0.00 | 57 | 1010.9 |
| 20260509220118 | 16 | 249 | 9.7 | 11.3 | 0.00 | 0.00 | 0.00 | 55 | 1010.8 |
| 20260509215614 | 16 | 277 | 8.0 | 9.7 | 0.00 | 0.00 | 0.00 | 55 | 1010.6 |
| 20260509215111 | 16 | 247 | 6.4 | 6.4 | 0.00 | 0.00 | 0.00 | 55 | 1010.5 |
| 20260509214608 | 16 | 200 | 9.7 | 11.3 | 0.00 | 0.00 | 0.00 | 56 | 1010.6 |
| 20260509214105 | 16 | 293 | 9.7 | 12.9 | 0.00 | 0.00 | 0.00 | 56 | 1010.7 |
| 20260509213601 | 16 | 276 | 9.7 | 16.1 | 0.00 | 0.00 | 0.00 | 57 | 1010.5 |
| 20260509213057 | 16 | 293 | 8.0 | 9.7 | 0.00 | 0.00 | 0.00 | 54 | 1010.5 |
| 20260509212555 | 16 | 300 | 4.8 | 4.8 | 0.00 | 0.00 | 0.00 | 56 | 1010.1 |
| 20260509212052 | 16 | 252 | 11.3 | 14.5 | 0.00 | 0.00 | 0.00 | 55 | 1010.2 |
| 20260509211547 | 16 | 324 | 3.2 | 3.2 | 0.00 | 0.00 | 0.00 | 55 | 1010.3 |
| 20260509211044 | 15 | 329 | 4.8 | 6.4 | 0.00 | 0.00 | 0.00 | 58 | 1010.3 |
| 20260509210541 | 16 | 298 | 6.4 | 6.4 | 0.00 | 0.00 | 0.00 | 57 | 1010.2 |
| 20260509210037 | 15 | 228 | 6.4 | 9.7 | 0.00 | 0.00 | 0.00 | 59 | 1010.3 |
| 20260509205531 | 15 | 291 | 8.0 | 11.3 | 0.00 | 0.00 | 0.00 | 59 | 1010.3 |
| 20260509205027 | 15 | 19 | 4.8 | 6.4 | 0.00 | 0.00 | 0.00 | 59 | 1010.1 |
| 20260509204524 | 15 | 274 | 4.8 | 4.8 | 0.00 | 0.00 | 0.00 | 60 | 1010.3 |
| 20260509204020 | 15 | 310 | 3.2 | 4.8 | 0.00 | 0.00 | 0.00 | 59 | 1010.3 |
| 20260509203516 | 15 | 249 | 6.4 | 6.4 | 0.00 | 0.00 | 0.00 | 59 | 1010.3 |
| 20260509203015 | 15 | 307 | 6.4 | 9.7 | 0.00 | 0.00 | 0.00 | 60 | 1010.3 |
| 20260509202514 | 15 | 284 | 6.4 | 9.7 | 0.00 | 0.00 | 0.00 | 61 | 1010.2 |
| 20260509202010 | 15 | 310 | 4.8 | 4.8 | 0.00 | 0.00 | 0.00 | 60 | 1010.3 |
| 20260509201505 | 15 | 314 | 1.6 | 3.2 | 0.00 | 0.00 | 0.00 | 60 | 1010.2 |
| 20260509201003 | 15 | 296 | 8.0 | 11.3 | 0.00 | 0.00 | 0.00 | 60 | 1010.2 |
| 20260509200458 | 15 | 314 | 4.8 | 6.4 | 0.00 | 0.00 | 0.00 | 60 | 1010.0 |
| 20260509195954 | 15 | 263 | 9.7 | 11.3 | 0.00 | 0.00 | 0.00 | 58 | 1010.1 |
| 20260509195450 | 15 | 354 | 3.2 | 4.8 | 0.00 | 0.00 | 0.00 | 59 | 1010.3 |
| 20260509194949 | 15 | 345 | 4.8 | 6.4 | 0.00 | 0.00 | 0.00 | 59 | 1010.5 |
| 20260509194445 | 15 | 266 | 4.8 | 6.4 | 0.00 | 0.00 | 0.00 | 58 | 1010.3 |
| 20260509193942 | 15 | 224 | 12.9 | 16.1 | 0.00 | 0.00 | 0.00 | 57 | 1010.1 |
| 20260509193442 | 15 | 229 | 6.4 | 6.4 | 0.00 | 0.00 | 0.00 | 58 | 1010.0 |
| 20260509192938 | 15 | 258 | 6.4 | 9.7 | 0.00 | 0.00 | 0.00 | 57 | 1010.3 |
| 20260509192435 | 15 | 297 | 4.8 | 6.4 | 0.00 | 0.00 | 0.00 | 56 | 1010.2 |
| 20260509191930 | 15 | 265 | 6.4 | 6.4 | 0.00 | 0.00 | 0.00 | 57 | 1010.1 |
| 20260509191426 | 15 | 246 | 8.0 | 12.9 | 0.00 | 0.00 | 0.00 | 55 | 1010.1 |
| 20260509190922 | 15 | 247 | 19.3 | 25.7 | 0.00 | 0.00 | 0.00 | 54 | 1010.1 |
| 20260509190419 | 16 | 225 | 6.4 | 6.4 | 0.00 | 0.00 | 0.00 | 52 | 1009.9 |
| 20260509185917 | 16 | 201 | 4.8 | 9.7 | 0.00 | 0.00 | 0.00 | 51 | 1010.1 |
| 20260509185414 | 16 | 319 | 3.2 | 4.8 | 0.00 | 0.00 | 0.00 | 52 | 1009.8 |
| 20260509184911 | 16 | 260 | 12.9 | 14.5 | 0.00 | 0.00 | 0.00 | 52 | 1009.9 |
| 20260509184408 | 15 | 262 | 9.7 | 11.3 | 0.00 | 0.00 | 0.00 | 53 | 1009.9 |
| 20260509183905 | 15 | 288 | 11.3 | 12.9 | 0.00 | 0.00 | 0.00 | 53 | 1010.0 |
| 20260509183359 | 16 | 255 | 9.7 | 11.3 | 0.00 | 0.00 | 0.00 | 52 | 1010.1 |
| 20260509182855 | 16 | 271 | 8.0 | 9.7 | 0.00 | 0.00 | 0.00 | 51 | 1010.0 |
| 20260509182353 | 16 | 283 | 19.3 | 22.5 | 0.00 | 0.00 | 0.00 | 51 | 1010.0 |
| 20260509181850 | 17 | 240 | 6.4 | 11.3 | 0.00 | 0.00 | 0.00 | 49 | 1009.9 |
| 20260509181347 | 16 | 280 | 3.2 | 4.8 | 0.00 | 0.00 | 0.00 | 51 | 1009.9 |
| 20260509180845 | 16 | 252 | 4.8 | 9.7 | 0.00 | 0.00 | 0.00 | 52 | 1010.1 |
| 20260509180340 | 16 | 236 | 11.3 | 14.5 | 0.00 | 0.00 | 0.00 | 53 | 1009.9 |
| 20260509175837 | 16 | 189 | 4.8 | 11.3 | 0.00 | 0.00 | 0.00 | 53 | 1010.0 |
| 20260509175333 | 15 | 221 | 9.7 | 12.9 | 0.00 | 0.00 | 0.00 | 53 | 1010.1 |
| 20260509174829 | 15 | 291 | 6.4 | 11.3 | 0.00 | 0.00 | 0.00 | 54 | 1010.1 |
| 20260509174325 | 15 | 4 | 4.8 | 6.4 | 0.00 | 0.00 | 0.00 | 53 | 1010.1 |
| 20260509173821 | 15 | 302 | 4.8 | 9.7 | 0.00 | 0.00 | 0.00 | 53 | 1010.1 |
| 20260509173317 | 15 | 202 | 11.3 | 12.9 | 0.00 | 0.00 | 0.00 | 53 | 1010.3 |
| 20260509172813 | 15 | 185 | 14.5 | 16.1 | 0.00 | 0.00 | 0.00 | 53 | 1010.5 |
| 20260509172310 | 15 | 195 | 6.4 | 9.7 | 0.00 | 0.00 | 0.00 | 54 | 1010.2 |
| 20260509171806 | 14 | 224 | 8.0 | 11.3 | 0.00 | 0.00 | 0.00 | 56 | 1010.5 |
| 20260509171302 | 14 | 287 | 11.3 | 14.5 | 0.00 | 0.00 | 0.00 | 55 | 1010.3 |
| 20260509170758 | 13 | 248 | 6.4 | 11.3 | 0.00 | 0.00 | 0.00 | 57 | 1010.7 |
| 20260509170255 | 13 | 296 | 8.0 | 9.7 | 0.00 | 0.00 | 0.00 | 55 | 1010.6 |
| 20260509165754 | 13 | 298 | 8.0 | 11.3 | 0.00 | 0.00 | 0.00 | 57 | 1010.7 |
| 20260509165249 | 13 | 310 | 4.8 | 6.4 | 0.00 | 0.00 | 0.00 | 57 | 1010.7 |
| 20260509164745 | 13 | 274 | 0.0 | 1.6 | 0.00 | 0.00 | 0.00 | 59 | 1010.7 |
| 20260509164241 | 13 | 237 | 8.0 | 9.7 | 0.00 | 0.00 | 0.00 | 58 | 1010.9 |
| 20260509163738 | 13 | 348 | 4.8 | 6.4 | 0.00 | 0.00 | 0.00 | 58 | 1010.8 |
| 20260509163234 | 13 | 313 | 3.2 | 4.8 | 0.00 | 0.00 | 0.00 | 58 | 1010.8 |
| 20260509162733 | 13 | 303 | 4.8 | 4.8 | 0.00 | 0.00 | 0.00 | 57 | 1010.9 |
| 20260509162227 | 13 | 296 | 4.8 | 4.8 | 0.00 | 0.00 | 0.00 | 58 | 1010.6 |
| 20260509161723 | 13 | 269 | 9.7 | 9.7 | 0.00 | 0.00 | 0.00 | 56 | 1010.7 |
| 20260509161220 | 13 | 257 | 1.6 | 3.2 | 0.00 | 0.00 | 0.00 | 56 | 1010.8 |
| 20260509160715 | 13 | 241 | 8.0 | 11.3 | 0.00 | 0.00 | 0.00 | 55 | 1010.9 |
| 20260509160211 | 13 | 307 | 3.2 | 3.2 | 0.00 | 0.00 | 0.00 | 54 | 1010.8 |
| 20260509155706 | 13 | 299 | 3.2 | 4.8 | 0.00 | 0.00 | 0.00 | 55 | 1010.9 |
| 20260509155203 | 12 | 297 | 4.8 | 4.8 | 0.00 | 0.00 | 0.00 | 58 | 1011.1 |
| 20260509154659 | 12 | 263 | 6.4 | 6.4 | 0.00 | 0.00 | 0.00 | 57 | 1011.4 |
| 20260509154156 | 12 | 229 | 4.8 | 6.4 | 0.00 | 0.00 | 0.00 | 58 | 1011.3 |
| 20260509153653 | 12 | 278 | 9.7 | 12.9 | 0.00 | 0.00 | 0.00 | 57 | 1011.3 |
| 20260509153150 | 12 | 251 | 4.8 | 4.8 | 0.00 | 0.00 | 0.00 | 58 | 1011.3 |
| 20260509152645 | 12 | 276 | 8.0 | 9.7 | 0.00 | 0.00 | 0.00 | 58 | 1011.5 |
| 20260509152143 | 12 | 264 | 8.0 | 11.3 | 0.00 | 0.00 | 0.00 | 57 | 1011.2 |
| 20260509151639 | 12 | 323 | 8.0 | 9.7 | 0.00 | 0.00 | 0.00 | 57 | 1011.4 |
| 20260509151137 | 12 | 282 | 6.4 | 11.3 | 0.00 | 0.00 | 0.00 | 57 | 1011.2 |
| 20260509150635 | 12 | 266 | 8.0 | 9.7 | 0.00 | 0.00 | 0.00 | 56 | 1011.3 |
| 20260509150133 | 12 | 303 | 1.6 | 3.2 | 0.00 | 0.00 | 0.00 | 61 | 1011.0 |
| 20260509145629 | 12 | 293 | 3.2 | 3.2 | 0.00 | 0.00 | 0.00 | 60 | 1010.9 |
| 20260509145124 | 12 | 311 | 0.0 | 0.0 | 0.00 | 0.00 | 0.00 | 60 | 1011.0 |
| 20260509144621 | 12 | 310 | 0.0 | 1.6 | 0.00 | 0.00 | 0.00 | 62 | 1011.0 |
| 20260509144118 | 12 | 311 | 0.0 | 0.0 | 0.00 | 0.00 | 0.00 | 62 | 1011.2 |
| 20260509143615 | 12 | 332 | 0.0 | 0.0 | 0.00 | 0.00 | 0.00 | 61 | 1011.0 |
| 20260509143113 | 12 | 325 | 0.0 | 0.0 | 0.00 | 0.00 | 0.00 | 63 | 1010.9 |
| 20260509142608 | 11 | 320 | 0.0 | 0.0 | 0.00 | 0.00 | 0.00 | 67 | 1010.9 |
| 20260509142104 | 11 | 333 | 0.0 | 0.0 | 0.00 | 0.00 | 0.00 | 67 | 1010.9 |
| 20260509141600 | 11 | 335 | 0.0 | 0.0 | 0.00 | 0.00 | 0.00 | 69 | 1011.1 |
| 20260509141057 | 11 | 340 | 1.6 | 3.2 | 0.00 | 0.00 | 0.00 | 69 | 1011.0 |
| 20260509140554 | 11 | 38 | 1.6 | 3.2 | 0.00 | 0.00 | 0.00 | 70 | 1011.2 |
| 20260509140052 | 11 | 338 | 0.0 | 1.6 | 0.00 | 0.00 | 0.00 | 69 | 1011.1 |
| 20260509135549 | 11 | 337 | 0.0 | 0.0 | 0.00 | 0.00 | 0.00 | 70 | 1011.1 |
| 20260509135047 | 10 | 326 | 0.0 | 0.0 | 0.00 | 0.00 | 0.00 | 72 | 1011.2 |
| 20260509134543 | 10 | 327 | 0.0 | 1.6 | 0.00 | 0.00 | 0.00 | 72 | 1011.2 |
| 20260509134041 | 10 | 339 | 0.0 | 0.0 | 0.00 | 0.00 | 0.00 | 73 | 1011.5 |
| 20260509133537 | 10 | 335 | 0.0 | 0.0 | 0.00 | 0.00 | 0.00 | 74 | 1011.4 |
| 20260509133035 | 10 | 336 | 0.0 | 0.0 | 0.00 | 0.00 | 0.00 | 74 | 1011.2 |
| 20260509132533 | 10 | 336 | 0.0 | 0.0 | 0.00 | 0.00 | 0.00 | 74 | 1011.3 |
| 20260509132032 | 10 | 336 | 0.0 | 1.6 | 0.00 | 0.00 | 0.00 | 74 | 1011.1 |
| 20260509131527 | 10 | 335 | 0.0 | 0.0 | 0.00 | 0.00 | 0.00 | 75 | 1011.1 |
| 20260509131024 | 10 | 336 | 0.0 | 0.0 | 0.00 | 0.00 | 0.00 | 74 | 1011.1 |
| 20260509130520 | 10 | 335 | 0.0 | 0.0 | 0.00 | 0.00 | 0.00 | 74 | 1011.1 |
| 20260509130017 | 9 | 335 | 0.0 | 0.0 | 0.00 | 0.00 | 0.00 | 73 | 1011.0 |
| 20260509125513 | 9 | 309 | 0.0 | 0.0 | 0.00 | 0.00 | 0.00 | 74 | 1011.0 |
| 20260509125010 | 9 | 309 | 0.0 | 0.0 | 0.00 | 0.00 | 0.00 | 74 | 1011.1 |
| 20260509124507 | 9 | 309 | 0.0 | 0.0 | 0.00 | 0.00 | 0.00 | 75 | 1010.9 |
| 20260509124004 | 9 | 309 | 0.0 | 0.0 | 0.00 | 0.00 | 0.00 | 76 | 1011.0 |
| 20260509123501 | 9 | 309 | 0.0 | 0.0 | 0.00 | 0.00 | 0.00 | 77 | 1011.0 |
| 20260509122957 | 9 | 309 | 0.0 | 0.0 | 0.00 | 0.00 | 0.00 | 77 | 1011.0 |
| 20260509122454 | 8 | 309 | 0.0 | 0.0 | 0.00 | 0.00 | 0.00 | 78 | 1010.8 |
| 20260509121951 | 8 | 309 | 0.0 | 0.0 | 0.00 | 0.00 | 0.00 | 78 | 1011.0 |
| 20260509121448 | 8 | 309 | 0.0 | 0.0 | 0.00 | 0.00 | 0.00 | 77 | 1011.2 |
| 20260509120946 | 8 | 309 | 0.0 | 0.0 | 0.00 | 0.00 | 0.00 | 78 | 1011.2 |
| 20260509120443 | 8 | 309 | 0.0 | 0.0 | 0.00 | 0.00 | 0.00 | 78 | 1011.4 |
| 20260509115941 | 8 | 309 | 0.0 | 0.0 | 0.00 | 0.00 | 0.00 | 79 | 1011.2 |
| 20260509115438 | 8 | 309 | 0.0 | 0.0 | 0.00 | 0.00 | 0.00 | 79 | 1011.5 |
| 20260509114935 | 7 | 309 | 0.0 | 0.0 | 0.00 | 0.00 | 0.00 | 79 | 1011.4 |
| 20260509114434 | 7 | 309 | 0.0 | 0.0 | 0.00 | 0.00 | 0.00 | 80 | 1011.3 |
| 20260509113933 | 7 | 309 | 0.0 | 0.0 | 0.00 | 0.00 | 0.00 | 80 | 1011.4 |
| 20260509113430 | 7 | 309 | 0.0 | 0.0 | 0.00 | 0.00 | 0.00 | 80 | 1011.5 |
| 20260509112927 | 7 | 309 | 0.0 | 0.0 | 0.00 | 0.00 | 0.00 | 81 | 1011.4 |
| 20260509112424 | 7 | 309 | 0.0 | 0.0 | 0.00 | 0.00 | 0.00 | 81 | 1011.4 |
| 20260509111921 | 7 | 309 | 0.0 | 0.0 | 0.00 | 0.00 | 0.00 | 81 | 1011.4 |
| 20260509111418 | 6 | 309 | 0.0 | 0.0 | 0.00 | 0.00 | 0.00 | 81 | 1011.3 |
| 20260509110916 | 6 | 309 | 0.0 | 0.0 | 0.00 | 0.00 | 0.00 | 82 | 1011.4 |
| 20260509110411 | 6 | 308 | 0.0 | 0.0 | 0.00 | 0.00 | 0.00 | 83 | 1011.3 |
| 20260509105910 | 6 | 308 | 0.0 | 1.6 | 0.00 | 0.00 | 0.00 | 84 | 1011.3 |
| 20260509105408 | 6 | 309 | 0.0 | 0.0 | 0.00 | 0.00 | 0.00 | 84 | 1011.5 |
| 20260509104904 | 6 | 310 | 0.0 | 0.0 | 0.00 | 0.00 | 0.00 | 83 | 1011.2 |
| 20260509104401 | 6 | 334 | 0.0 | 0.0 | 0.00 | 0.00 | 0.00 | 82 | 1011.3 |
| 20260509103859 | 6 | 335 | 0.0 | 0.0 | 0.00 | 0.00 | 0.00 | 82 | 1011.3 |
| 20260509103356 | 6 | 335 | 0.0 | 0.0 | 0.00 | 0.00 | 0.00 | 82 | 1011.3 |
| 20260509102855 | 6 | 320 | 0.0 | 0.0 | 0.00 | 0.00 | 0.00 | 82 | 1011.3 |
| 20260509102351 | 6 | 307 | 0.0 | 0.0 | 0.00 | 0.00 | 0.00 | 82 | 1011.2 |
| 20260509101847 | 6 | 307 | 0.0 | 0.0 | 0.00 | 0.00 | 0.00 | 82 | 1011.3 |
| 20260509101343 | 6 | 306 | 0.0 | 0.0 | 0.00 | 0.00 | 0.00 | 82 | 1011.4 |
| 20260509100841 | 6 | 306 | 0.0 | 0.0 | 0.00 | 0.00 | 0.00 | 80 | 1011.0 |
| 20260509100338 | 6 | 314 | 0.0 | 0.0 | 0.00 | 0.00 | 0.00 | 80 | 1011.2 |
| 20260509095835 | 6 | 314 | 0.0 | 0.0 | 0.00 | 0.00 | 0.00 | 80 | 1011.0 |
| 20260509095332 | 6 | 314 | 0.0 | 0.0 | 0.00 | 0.00 | 0.00 | 79 | 1010.9 |
| 20260509094829 | 7 | 314 | 0.0 | 0.0 | 0.00 | 0.00 | 0.00 | 80 | 1011.1 |
| 20260509094326 | 7 | 314 | 0.0 | 0.0 | 0.00 | 0.00 | 0.00 | 79 | 1011.0 |
| 20260509093823 | 7 | 314 | 0.0 | 0.0 | 0.00 | 0.00 | 0.00 | 77 | 1011.0 |
| 20260509093320 | 7 | 314 | 0.0 | 0.0 | 0.00 | 0.00 | 0.00 | 76 | 1011.2 |
| 20260509092819 | 7 | 315 | 0.0 | 0.0 | 0.00 | 0.00 | 0.00 | 75 | 1011.2 |
| 20260509092317 | 7 | 315 | 0.0 | 0.0 | 0.00 | 0.00 | 0.00 | 74 | 1011.4 |
| 20260509091814 | 8 | 315 | 0.0 | 0.0 | 0.00 | 0.00 | 0.00 | 73 | 1011.3 |
| 20260509091311 | 8 | 321 | 0.0 | 0.0 | 0.00 | 0.00 | 0.00 | 68 | 1011.3 |
| 20260509090808 | 8 | 322 | 0.0 | 0.0 | 0.00 | 0.00 | 0.00 | 66 | 1011.3 |
| 20260509090305 | 9 | 317 | 0.0 | 0.0 | 0.00 | 0.00 | 0.00 | 65 | 1011.2 |
| 20260509085803 | 9 | 300 | 0.0 | 0.0 | 0.00 | 0.00 | 0.00 | 65 | 1011.1 |
| 20260509085300 | 9 | 301 | 0.0 | 0.0 | 0.00 | 0.00 | 0.00 | 64 | 1011.0 |
| 20260509084756 | 9 | 299 | 0.0 | 0.0 | 0.00 | 0.00 | 0.00 | 64 | 1011.3 |
| 20260509084253 | 9 | 301 | 0.0 | 0.0 | 0.00 | 0.00 | 0.00 | 64 | 1011.3 |
| 20260509083751 | 9 | 287 | 3.2 | 3.2 | 0.00 | 0.00 | 0.00 | 64 | 1011.3 |
| 20260509083247 | 9 | 308 | 0.0 | 1.6 | 0.00 | 0.00 | 0.00 | 64 | 1011.3 |
| 20260509082744 | 9 | 293 | 3.2 | 3.2 | 0.00 | 0.00 | 0.00 | 63 | 1011.4 |
| 20260509082241 | 9 | 285 | 1.6 | 4.8 | 0.00 | 0.00 | 0.00 | 63 | 1011.3 |
| 20260509081738 | 9 | 312 | 3.2 | 3.2 | 0.00 | 0.00 | 0.00 | 63 | 1011.4 |
| 20260509081235 | 9 | 303 | 3.2 | 4.8 | 0.00 | 0.00 | 0.00 | 63 | 1011.2 |
| 20260509080733 | 9 | 301 | 3.2 | 4.8 | 0.00 | 0.00 | 0.00 | 63 | 1011.1 |
| 20260509080231 | 9 | 298 | 4.8 | 4.8 | 0.00 | 0.00 | 0.00 | 63 | 1011.4 |
| 20260509075729 | 9 | 316 | 1.6 | 1.6 | 0.00 | 0.00 | 0.00 | 63 | 1011.3 |
| 20260509075226 | 9 | 309 | 3.2 | 3.2 | 0.00 | 0.00 | 0.00 | 62 | 1011.2 |
| 20260509074723 | 9 | 294 | 1.6 | 1.6 | 0.00 | 0.00 | 0.00 | 63 | 1011.3 |
| 20260509074221 | 9 | 299 | 1.6 | 3.2 | 0.00 | 0.00 | 0.00 | 63 | 1011.2 |
| 20260509073716 | 8 | 305 | 1.6 | 3.2 | 0.00 | 0.00 | 0.00 | 64 | 1011.4 |
| 20260509073213 | 8 | 297 | 0.0 | 0.0 | 0.00 | 0.00 | 0.00 | 66 | 1011.3 |
| 20260509072709 | 9 | 297 | 0.0 | 0.0 | 0.00 | 0.00 | 0.00 | 68 | 1011.4 |
| 20260509072207 | 9 | 297 | 0.0 | 0.0 | 0.00 | 0.00 | 0.00 | 63 | 1011.4 |
| 20260509071703 | 9 | 299 | 1.6 | 1.6 | 0.00 | 0.00 | 0.00 | 63 | 1011.2 |
| 20260509071200 | 9 | 304 | 0.0 | 0.0 | 0.00 | 0.00 | 0.00 | 64 | 1011.5 |
| 20260509070657 | 9 | 299 | 1.6 | 1.6 | 0.00 | 0.00 | 0.00 | 64 | 1011.7 |
| 20260509070153 | 9 | 298 | 1.6 | 1.6 | 0.00 | 0.00 | 0.00 | 66 | 1011.4 |
| 20260509065650 | 8 | 299 | 0.0 | 0.0 | 0.00 | 0.00 | 0.00 | 66 | 1011.4 |
| 20260509065146 | 8 | 298 | 3.2 | 3.2 | 0.00 | 0.00 | 0.00 | 70 | 1011.2 |
| 20260509064643 | 7 | 300 | 0.0 | 0.0 | 0.00 | 0.00 | 0.00 | 75 | 1011.3 |
| 20260509064141 | 7 | 300 | 0.0 | 0.0 | 0.00 | 0.00 | 0.00 | 81 | 1011.5 |
| 20260509063637 | 7 | 300 | 0.0 | 0.0 | 0.00 | 0.00 | 0.00 | 84 | 1011.7 |
| 20260509063134 | 7 | 300 | 0.0 | 0.0 | 0.00 | 0.00 | 0.00 | 84 | 1011.3 |
| 20260509062631 | 7 | 300 | 0.0 | 0.0 | 0.00 | 0.00 | 0.00 | 84 | 1011.7 |
| 20260509062128 | 7 | 300 | 0.0 | 0.0 | 0.00 | 0.00 | 0.00 | 84 | 1011.5 |
| 20260509061625 | 7 | 300 | 0.0 | 0.0 | 0.00 | 0.00 | 0.00 | 84 | 1011.8 |
| 20260509061122 | 6 | 300 | 0.0 | 0.0 | 0.00 | 0.00 | 0.00 | 84 | 1011.9 |
| 20260509060620 | 6 | 300 | 0.0 | 0.0 | 0.00 | 0.00 | 0.00 | 84 | 1011.7 |
| 20260509060115 | 6 | 300 | 0.0 | 0.0 | 0.00 | 0.00 | 0.00 | 84 | 1011.7 |
| 20260509055611 | 6 | 300 | 0.0 | 0.0 | 0.00 | 0.00 | 0.00 | 84 | 1011.8 |
| 20260509055107 | 6 | 300 | 0.0 | 0.0 | 0.00 | 0.00 | 0.00 | 85 | 1011.9 |
| 20260509054604 | 6 | 300 | 0.0 | 0.0 | 0.00 | 0.00 | 0.00 | 85 | 1011.9 |
| 20260509054102 | 6 | 300 | 0.0 | 0.0 | 0.00 | 0.00 | 0.00 | 84 | 1012.0 |
| 20260509053600 | 6 | 300 | 0.0 | 0.0 | 0.00 | 0.00 | 0.00 | 84 | 1012.0 |
| 20260509053057 | 6 | 300 | 0.0 | 0.0 | 0.00 | 0.00 | 0.00 | 84 | 1012.1 |
| 20260509052555 | 6 | 300 | 0.0 | 0.0 | 0.00 | 0.00 | 0.00 | 83 | 1012.1 |
| 20260509052053 | 7 | 300 | 0.0 | 0.0 | 0.00 | 0.00 | 0.00 | 83 | 1012.2 |
| 20260509051550 | 7 | 300 | 0.0 | 0.0 | 0.00 | 0.00 | 0.00 | 82 | 1012.2 |
| 20260509051047 | 7 | 300 | 0.0 | 0.0 | 0.00 | 0.00 | 0.00 | 82 | 1012.1 |
| 20260509050544 | 7 | 300 | 0.0 | 0.0 | 0.00 | 0.00 | 0.00 | 82 | 1012.3 |
| 20260509050040 | 7 | 300 | 0.0 | 0.0 | 0.00 | 0.00 | 0.00 | 83 | 1012.2 |
| 20260509045538 | 7 | 300 | 0.0 | 0.0 | 0.00 | 0.00 | 0.00 | 82 | 1012.5 |
| 20260509045035 | 7 | 300 | 0.0 | 0.0 | 0.00 | 0.00 | 0.00 | 81 | 1012.6 |
| 20260509044532 | 7 | 300 | 0.0 | 0.0 | 0.00 | 0.00 | 0.00 | 81 | 1012.3 |
| 20260509044029 | 7 | 300 | 0.0 | 0.0 | 0.00 | 0.00 | 0.00 | 82 | 1012.3 |
| 20260509043526 | 7 | 300 | 0.0 | 0.0 | 0.00 | 0.00 | 0.00 | 82 | 1012.6 |
| 20260509043021 | 7 | 300 | 0.0 | 0.0 | 0.00 | 0.00 | 0.00 | 81 | 1012.4 |
| 20260509042518 | 7 | 300 | 0.0 | 0.0 | 0.00 | 0.00 | 0.00 | 81 | 1012.5 |
| 20260509042014 | 7 | 300 | 0.0 | 0.0 | 0.00 | 0.00 | 0.00 | 80 | 1012.6 |
| 20260509041511 | 7 | 300 | 0.0 | 0.0 | 0.00 | 0.00 | 0.00 | 80 | 1012.8 |
| 20260509041009 | 7 | 300 | 0.0 | 0.0 | 0.00 | 0.00 | 0.00 | 81 | 1012.6 |
| 20260509040507 | 7 | 300 | 0.0 | 0.0 | 0.00 | 0.00 | 0.00 | 82 | 1012.6 |
| 20260509040003 | 7 | 300 | 0.0 | 0.0 | 0.00 | 0.00 | 0.00 | 83 | 1012.4 |
| 20260509035500 | 7 | 300 | 0.0 | 0.0 | 0.00 | 0.00 | 0.00 | 84 | 1012.6 |
| 20260509034956 | 7 | 300 | 0.0 | 0.0 | 0.00 | 0.00 | 0.00 | 85 | 1012.6 |
| 20260509034455 | 7 | 300 | 0.0 | 0.0 | 0.00 | 0.00 | 0.00 | 85 | 1012.5 |
| 20260509033951 | 7 | 300 | 0.0 | 0.0 | 0.00 | 0.00 | 0.00 | 84 | 1012.6 |
| 20260509033448 | 7 | 300 | 0.0 | 0.0 | 0.00 | 0.00 | 0.00 | 83 | 1012.5 |
| 20260509032945 | 7 | 300 | 0.0 | 0.0 | 0.00 | 0.00 | 0.00 | 83 | 1012.8 |
| 20260509032442 | 7 | 300 | 0.0 | 0.0 | 0.00 | 0.00 | 0.00 | 83 | 1012.9 |
| 20260509031940 | 7 | 300 | 0.0 | 0.0 | 0.00 | 0.00 | 0.00 | 82 | 1012.9 |
| 20260509031437 | 7 | 300 | 0.0 | 0.0 | 0.00 | 0.00 | 0.00 | 82 | 1012.6 |
| 20260509030934 | 7 | 300 | 0.0 | 0.0 | 0.00 | 0.00 | 0.00 | 81 | 1012.5 |
| 20260509030432 | 7 | 300 | 0.0 | 0.0 | 0.00 | 0.00 | 0.00 | 80 | 1012.8 |
| 20260509025929 | 8 | 300 | 0.0 | 0.0 | 0.00 | 0.00 | 0.00 | 79 | 1012.5 |
| 20260509025425 | 8 | 300 | 0.0 | 0.0 | 0.00 | 0.00 | 0.00 | 78 | 1012.6 |
| 20260509024920 | 8 | 300 | 0.0 | 0.0 | 0.00 | 0.00 | 0.00 | 75 | 1012.6 |
| 20260509024417 | 8 | 300 | 0.0 | 0.0 | 0.00 | 0.00 | 0.00 | 73 | 1012.8 |
| 20260509023914 | 8 | 300 | 0.0 | 0.0 | 0.00 | 0.00 | 0.00 | 74 | 1012.8 |
| 20260509023411 | 8 | 300 | 0.0 | 0.0 | 0.00 | 0.00 | 0.00 | 75 | 1013.0 |
| 20260509022907 | 8 | 300 | 0.0 | 0.0 | 0.00 | 0.00 | 0.00 | 76 | 1012.8 |
| 20260509022405 | 8 | 300 | 0.0 | 0.0 | 0.00 | 0.00 | 0.00 | 76 | 1012.6 |
| 20260509021902 | 8 | 300 | 0.0 | 0.0 | 0.00 | 0.00 | 0.00 | 76 | 1012.8 |
| 20260509021358 | 8 | 300 | 0.0 | 0.0 | 0.00 | 0.00 | 0.00 | 75 | 1012.5 |
| 20260509020856 | 8 | 300 | 0.0 | 0.0 | 0.00 | 0.00 | 0.00 | 74 | 1012.8 |
| 20260509020354 | 8 | 300 | 0.0 | 0.0 | 0.00 | 0.00 | 0.00 | 74 | 1012.9 |
| 20260509015851 | 9 | 300 | 0.0 | 0.0 | 0.00 | 0.00 | 0.00 | 74 | 1012.9 |
| 20260509015350 | 9 | 300 | 0.0 | 0.0 | 0.00 | 0.00 | 0.00 | 73 | 1013.0 |
| 20260509014846 | 9 | 300 | 0.0 | 0.0 | 0.00 | 0.00 | 0.00 | 72 | 1012.9 |
| 20260509014342 | 9 | 300 | 0.0 | 0.0 | 0.00 | 0.00 | 0.00 | 71 | 1012.9 |
| 20260509013839 | 9 | 300 | 0.0 | 0.0 | 0.00 | 0.00 | 0.00 | 69 | 1013.0 |
| 20260509013336 | 10 | 300 | 0.0 | 0.0 | 0.00 | 0.00 | 0.00 | 69 | 1013.1 |
| 20260509012832 | 10 | 300 | 0.0 | 0.0 | 0.00 | 0.00 | 0.00 | 68 | 1013.0 |
| 20260509012328 | 9 | 300 | 0.0 | 0.0 | 0.00 | 0.00 | 0.00 | 63 | 1012.6 |
| 20260509011826 | 9 | 300 | 0.0 | 0.0 | 0.00 | 0.00 | 0.00 | 65 | 1012.4 |
| 20260509011323 | 9 | 300 | 0.0 | 0.0 | 0.00 | 0.00 | 0.00 | 66 | 1012.2 |
| 20260509010821 | 9 | 300 | 0.0 | 0.0 | 0.00 | 0.00 | 0.00 | 67 | 1012.2 |